Seminole, TX

9:29 AM CDT on June 29, 2017 (GMT -0500)
Seminole

Weather History for KGNC - January, 2014

Change the Weather History Date:

Tuesday, January 28, 2014

  Actual Average (KHOB) Record (KHOB)
Temperature  
Mean Temperature 22 °F -  
Max Temperature 32 °F 56 °F 78 °F (2003)
Min Temperature 11 °F 30 °F 10 °F (1949)
Degree Days  
Heating Degree Days 44    
Moisture  
Dew Point -7 °F    
Average Humidity 30    
Maximum Humidity 43    
Minimum Humidity 18    
Precipitation  
Precipitation 0.00 in - - ()
Sea Level Pressure  
Sea Level Pressure 30.32 in    
Wind  
Wind Speed 9 mph (NE)    
Max Wind Speed 16 mph    
Max Gust Speed 23 mph    
Visibility 10 miles    
Events      
Averages and records for this station are not official NWS values.
T = Trace of Precipitation, MM = Missing Value Source: NWS Daily Summary

Daily Weather History Graph

Daily Weather History Graph

Search for Another Location

Airport or City:

Trip Planner

Search our weather history database for the weather conditions in past years. The results will help you decide how hot, cold, wet, or windy it might be!

Date:

Astronomy

Jan. 28, 2014 Rise Set
Actual Time 7:47 AM CST 6:19 PM CST
Civil Twilight 7:21 AM CST 6:45 PM CST
Nautical Twilight 6:52 AM CST 7:15 PM CST
Astronomical Twilight 6:22 AM CST 7:44 PM CST
Moon 5:29 AM CST (1/28) 4:13 PM CST (1/28)
Length of Visible Light 11h 24m
Length of Day
10h 31m
Waning Crescent, 7% of the Moon is Illuminated
Jan 28
Waning Crescent
Jan 30
New
Feb 6
First Quarter
Feb 14
Full
Feb 22
Last Quarter

Hourly Weather History & Observations

Time (CST) Temp. Windchill Dew Point Humidity Pressure Visibility Wind Dir Wind Speed Gust Speed Precip Events Conditions
12:15 AM 20.1 °F 8.1 °F -8.5 °F 28% 30.19 in 10.0 mi East 11.5 mph - N/A   Clear
12:35 AM 19.4 °F 7.9 °F -8.7 °F 29% 30.19 in 10.0 mi East 10.4 mph - N/A   Clear
12:55 AM 18.5 °F 6.8 °F -8.3 °F 30% 30.20 in 10.0 mi East 10.4 mph - N/A   Clear
1:15 AM 18.1 °F 5.6 °F -8.9 °F 30% 30.20 in 10.0 mi East 11.5 mph - N/A   Clear
1:35 AM 17.6 °F 5.7 °F -8.5 °F 31% 30.20 in 10.0 mi ENE 10.4 mph - N/A   Clear
1:55 AM 17.4 °F 5.4 °F -8.5 °F 31% 30.20 in 10.0 mi ENE 10.4 mph 16.1 mph N/A   Clear
2:15 AM 17.2 °F 3.3 °F -8.0 °F 32% 30.21 in 10.0 mi ENE 13.8 mph 18.4 mph N/A   Clear
2:35 AM 16.7 °F 3.8 °F -8.0 °F 33% 30.21 in 10.0 mi ENE 11.5 mph - N/A   Clear
2:55 AM 15.6 °F 1.2 °F -8.5 °F 34% 30.22 in 10.0 mi ENE 13.8 mph 23.0 mph N/A   Clear
3:15 AM 14.7 °F -1.1 °F -10.3 °F 32% 30.23 in 10.0 mi ENE 16.1 mph 20.7 mph N/A   Clear
3:35 AM 14.0 °F -0.8 °F -11.6 °F 31% 30.24 in 10.0 mi ENE 13.8 mph 21.9 mph N/A   Clear
3:55 AM 13.6 °F -1.9 °F -11.7 °F 32% 30.24 in 10.0 mi ENE 15.0 mph 18.4 mph N/A   Clear
4:15 AM 13.1 °F -2.6 °F -12.1 °F 32% 30.24 in 10.0 mi ENE 15.0 mph - N/A   Clear
4:35 AM 12.7 °F -2.5 °F -11.7 °F 33% 30.25 in 10.0 mi ENE 13.8 mph 18.4 mph N/A   Clear
4:55 AM 12.4 °F -0.8 °F -11.4 °F 34% 30.25 in 10.0 mi ENE 10.4 mph - N/A   Clear
5:15 AM 12.2 °F -1.0 °F -11.2 °F 34% 30.27 in 10.0 mi ENE 10.4 mph - N/A   Clear
5:35 AM 12.0 °F -0.4 °F -11.2 °F 35% 30.28 in 10.0 mi NE 9.2 mph - N/A   Clear
5:55 AM 11.7 °F 2.3 °F -11.0 °F 36% 30.29 in 10.0 mi NE 5.8 mph - N/A   Clear
6:15 AM 11.5 °F 3.5 °F -10.5 °F 37% 30.30 in 10.0 mi NE 4.6 mph - N/A   Clear
6:35 AM 11.7 °F 3.7 °F -10.3 °F 37% 30.32 in 10.0 mi NE 4.6 mph - N/A   Clear
6:55 AM 11.3 °F 3.3 °F -9.4 °F 39% 30.33 in 10.0 mi NNE 4.6 mph - N/A   Clear
7:15 AM 11.3 °F -0.4 °F -9.9 °F 38% 30.34 in 10.0 mi NNE 8.1 mph - N/A   Clear
7:35 AM 11.3 °F 1.9 °F -9.4 °F 39% 30.35 in 10.0 mi NNE 5.8 mph - N/A   Clear
7:55 AM 11.7 °F 1.1 °F -8.7 °F 40% 30.36 in 10.0 mi North 6.9 mph - N/A   Clear
8:15 AM 12.4 °F 2.0 °F -7.6 °F 41% 30.37 in 10.0 mi NNE 6.9 mph - N/A   Clear
8:35 AM 12.6 °F 0.2 °F -6.7 °F 42% 30.37 in 10.0 mi NNE 9.2 mph - N/A   Clear
8:55 AM 13.1 °F 0.1 °F -5.8 °F 43% 30.38 in 10.0 mi NNE 10.4 mph - N/A   Clear
9:15 AM 14.0 °F 1.2 °F -6.7 °F 39% 30.39 in 10.0 mi North 10.4 mph - N/A   Clear
9:35 AM 14.4 °F 1.6 °F -6.2 °F 40% 30.40 in 10.0 mi NNE 10.4 mph - N/A   Clear
9:55 AM 15.1 °F 0.5 °F -5.8 °F 39% 30.41 in 10.0 mi North 13.8 mph 18.4 mph N/A   Clear
10:15 AM 15.6 °F 3.2 °F -5.8 °F 38% 30.42 in 10.0 mi NNE 10.4 mph 16.1 mph N/A   Clear
10:35 AM 16.0 °F 3.6 °F -5.8 °F 38% 30.42 in 10.0 mi NNE 10.4 mph 16.1 mph N/A   Clear
10:55 AM 17.2 °F 5.2 °F -6.0 °F 36% 30.42 in 10.0 mi NNE 10.4 mph - N/A   Clear
11:15 AM 17.6 °F 6.4 °F -6.3 °F 34% 30.42 in 10.0 mi NE 9.2 mph - N/A   Clear
11:35 AM 19.0 °F 6.8 °F -6.0 °F 33% 30.41 in 10.0 mi NNE 11.5 mph - N/A   Clear
11:55 AM 20.5 °F 10.8 °F -5.6 °F 32% 30.41 in 10.0 mi NNE 8.1 mph - N/A   Clear
12:15 PM 21.9 °F 13.4 °F -5.8 °F 29% 30.41 in 10.0 mi NE 6.9 mph 16.1 mph N/A   Clear
12:35 PM 23.9 °F 15.0 °F -7.1 °F 26% 30.39 in 10.0 mi North 8.1 mph - N/A   Clear
12:55 PM 25.7 °F 15.7 °F -6.7 °F 24% 30.38 in 10.0 mi North 10.4 mph - N/A   Clear
1:15 PM 26.2 °F 17.1 °F -7.4 °F 23% 30.37 in 10.0 mi North 9.2 mph - N/A   Clear
1:35 PM 27.9 °F 18.4 °F -7.4 °F 21% 30.35 in 10.0 mi NE 10.4 mph 16.1 mph N/A   Clear
1:55 PM 29.3 °F 20.8 °F -7.8 °F 20% 30.34 in 10.0 mi NNE 9.2 mph - N/A   Clear
2:15 PM 30.0 °F 21.7 °F -8.9 °F 18% 30.33 in 10.0 mi NE 9.2 mph - N/A   Clear
2:35 PM 30.2 °F 22.6 °F -6.9 °F 20% 30.32 in 10.0 mi NNE 8.1 mph - N/A   Clear
2:55 PM 30.7 °F 24.1 °F -7.4 °F 19% 30.31 in 10.0 mi NE 6.9 mph - N/A   Clear
3:15 PM 31.1 °F 23.7 °F -7.6 °F 19% 30.31 in 10.0 mi NE 8.1 mph - N/A   Clear
3:35 PM 31.8 °F 25.4 °F -6.5 °F 19% 30.31 in 10.0 mi NNE 6.9 mph - N/A   Clear
3:55 PM 32.0 °F 25.6 °F -5.8 °F 20% 30.31 in 10.0 mi NE 6.9 mph - N/A   Clear
4:15 PM 32.0 °F 25.6 °F -4.9 °F 20% 30.31 in 10.0 mi NNE 6.9 mph - N/A   Clear
4:35 PM 32.0 °F 27.5 °F -4.7 °F 21% 30.31 in 10.0 mi NE 4.6 mph - N/A   Clear
4:55 PM 32.0 °F 27.5 °F -4.7 °F 21% 30.32 in 10.0 mi NE 4.6 mph - N/A   Clear
5:15 PM 32.2 °F 26.7 °F -4.2 °F 21% 30.32 in 10.0 mi NE 5.8 mph - N/A   Clear
5:35 PM 32.0 °F - -4.0 °F 21% 30.32 in 10.0 mi Calm Calm - N/A   Clear
5:55 PM 31.3 °F 27.9 °F -4.2 °F 22% 30.32 in 10.0 mi East 3.5 mph - N/A   Clear
6:15 PM 30.0 °F 26.5 °F -4.0 °F 23% 30.33 in 10.0 mi East 3.5 mph - N/A   Clear
6:35 PM 28.2 °F 24.4 °F -4.4 °F 24% 30.33 in 10.0 mi ESE 3.5 mph - N/A   Clear
6:55 PM 27.3 °F 23.4 °F -4.5 °F 25% 30.33 in 10.0 mi ESE 3.5 mph - N/A   Clear
7:15 PM 26.6 °F 21.2 °F -4.9 °F 25% 30.33 in 10.0 mi ESE 4.6 mph - N/A   Clear
7:35 PM 26.1 °F 21.9 °F -4.9 °F 26% 30.34 in 10.0 mi SE 3.5 mph - N/A   Clear
7:55 PM 24.6 °F - -4.7 °F 28% 30.34 in 10.0 mi Calm Calm - N/A   Clear
8:15 PM 23.9 °F - -4.9 °F 28% 30.34 in 10.0 mi Calm Calm - N/A   Clear
8:35 PM 23.5 °F - -4.9 °F 29% 30.34 in 10.0 mi Calm Calm - N/A   Clear
8:55 PM 22.8 °F 18.2 °F -4.9 °F 30% 30.34 in 10.0 mi South 3.5 mph - N/A   Clear
9:15 PM 21.9 °F 17.2 °F -4.9 °F 31% 30.34 in 10.0 mi South 3.5 mph - N/A   Clear
9:35 PM 21.0 °F 16.2 °F -4.9 °F 32% 30.34 in 10.0 mi South 3.5 mph - N/A   Clear
9:55 PM 20.7 °F 14.2 °F -5.1 °F 32% 30.35 in 10.0 mi South 4.6 mph - N/A   Clear
10:15 PM 20.3 °F 13.8 °F -4.9 °F 33% 30.34 in 10.0 mi South 4.6 mph - N/A   Clear
10:35 PM 18.9 °F 12.1 °F -4.9 °F 35% 30.34 in 10.0 mi South 4.6 mph - N/A   Clear
10:55 PM 19.0 °F 12.3 °F -4.4 °F 36% 30.34 in 10.0 mi South 4.6 mph - N/A   Clear
11:15 PM 18.7 °F 10.6 °F -4.0 °F 37% 30.34 in 10.0 mi SSW 5.8 mph - N/A   Clear
11:35 PM 18.5 °F 11.7 °F -4.2 °F 37% 30.35 in 10.0 mi SSW 4.6 mph - N/A   Clear
11:55 PM 18.0 °F 11.1 °F -4.0 °F 38% 30.35 in 10.0 mi SW 4.6 mph - N/A   Clear